TimeCST,TemperatureF,Dew PointF,Humidity,Sea Level PressureIn,VisibilityMPH,Wind Direction,Wind SpeedMPH,Gust SpeedMPH,PrecipitationIn,Events,Conditions,WindDirDegrees,DateUTC
12:15 AM,41.0,33.8,76,29.62,10.0,SSW,8.1,-,N/A,,Clear,200,2012-12-03 06:15:00
12:35 AM,37.4,32.0,81,29.62,10.0,SSW,6.9,-,N/A,,Clear,210,2012-12-03 06:35:00
12:55 AM,35.6,32.0,87,29.60,10.0,SSW,4.6,-,N/A,,Clear,200,2012-12-03 06:55:00
1:15 AM,33.8,32.0,93,29.59,10.0,South,5.8,-,N/A,,Clear,190,2012-12-03 07:15:00
1:35 AM,35.6,32.0,87,29.58,10.0,SSW,8.1,-,N/A,,Clear,200,2012-12-03 07:35:00
1:55 AM,33.8,30.2,87,29.57,10.0,SW,8.1,-,N/A,,Clear,220,2012-12-03 07:55:00
2:15 AM,32.0,28.4,87,29.56,10.0,West,8.1,-,N/A,,Clear,260,2012-12-03 08:15:00
2:35 AM,30.2,28.4,93,29.57,10.0,WSW,6.9,-,N/A,,Clear,250,2012-12-03 08:35:00
2:55 AM,30.2,28.4,93,29.57,10.0,WSW,4.6,-,N/A,,Clear,250,2012-12-03 08:55:00
3:15 AM,32.0,28.4,87,29.57,10.0,WSW,6.9,-,N/A,,Clear,240,2012-12-03 09:15:00
3:35 AM,32.0,28.4,87,29.57,10.0,WSW,11.5,-,N/A,,Clear,250,2012-12-03 09:35:00
3:55 AM,37.4,30.2,75,29.57,10.0,WSW,10.4,-,N/A,,Clear,250,2012-12-03 09:55:00
4:15 AM,37.4,28.4,70,29.58,10.0,West,20.7,-,N/A,,Clear,280,2012-12-03 10:15:00
4:35 AM,41.0,28.4,61,29.59,10.0,WNW,19.6,-,N/A,,Clear,290,2012-12-03 10:35:00
4:55 AM,41.0,28.4,61,29.60,10.0,WNW,18.4,-,N/A,,Clear,300,2012-12-03 10:55:00
5:15 AM,41.0,28.4,61,29.62,10.0,NW,12.7,-,N/A,,Clear,310,2012-12-03 11:15:00
5:55 AM,41.0,26.6,57,29.65,10.0,NW,12.7,-,N/A,,Clear,310,2012-12-03 11:55:00
6:15 AM,41.0,28.4,61,29.68,10.0,NW,13.8,-,N/A,,Clear,310,2012-12-03 12:15:00
6:35 AM,41.0,28.4,61,29.70,10.0,WNW,15.0,-,N/A,,Clear,300,2012-12-03 12:35:00
6:55 AM,41.0,28.4,61,29.71,10.0,WNW,16.1,-,N/A,,Clear,300,2012-12-03 12:55:00
7:15 AM,42.8,28.4,57,29.74,10.0,WNW,17.3,-,N/A,,Clear,300,2012-12-03 13:15:00
7:55 AM,44.6,28.4,53,29.78,10.0,NW,13.8,-,N/A,,Clear,310,2012-12-03 13:55:00
8:15 AM,46.4,30.2,53,29.79,10.0,NW,12.7,-,N/A,,Clear,310,2012-12-03 14:15:00
8:35 AM,46.4,30.2,53,29.82,10.0,NW,12.7,-,N/A,,Clear,310,2012-12-03 14:35:00
8:55 AM,48.2,30.2,50,29.83,10.0,NW,15.0,-,N/A,,Clear,310,2012-12-03 14:55:00
9:15 AM,48.2,30.2,50,29.84,10.0,NW,17.3,23.0,N/A,,Clear,310,2012-12-03 15:15:00
9:35 AM,51.8,32.0,47,29.86,10.0,NW,23.0,29.9,N/A,,Clear,320,2012-12-03 15:35:00
9:55 AM,51.8,32.0,47,29.89,10.0,NNW,19.6,27.6,N/A,,Clear,330,2012-12-03 15:55:00
10:35 AM,55.4,37.4,51,29.93,10.0,NNW,20.7,34.5,N/A,,Clear,340,2012-12-03 16:35:00
10:55 AM,57.2,39.2,51,29.93,10.0,NNW,29.9,35.7,N/A,,Clear,330,2012-12-03 16:55:00
11:15 AM,55.4,39.2,54,29.95,10.0,NNW,25.3,34.5,N/A,,Clear,340,2012-12-03 17:15:00
11:55 AM,55.4,37.4,51,29.95,10.0,North,25.3,32.2,N/A,,Clear,360,2012-12-03 17:55:00
12:15 PM,55.4,37.4,51,29.96,10.0,North,26.5,31.1,N/A,,Clear,360,2012-12-03 18:15:00
12:35 PM,57.2,37.4,48,29.95,10.0,North,26.5,32.2,N/A,,Clear,360,2012-12-03 18:35:00
12:55 PM,57.2,35.6,44,29.95,10.0,North,25.3,29.9,N/A,,Clear,350,2012-12-03 18:55:00
1:15 PM,57.2,33.8,41,29.96,10.0,North,20.7,31.1,N/A,,Clear,350,2012-12-03 19:15:00
1:35 PM,57.2,33.8,41,29.97,10.0,North,24.2,-,N/A,,Clear,10,2012-12-03 19:35:00
1:55 PM,55.4,33.8,44,29.97,10.0,North,20.7,26.5,N/A,,Clear,360,2012-12-03 19:55:00
2:15 PM,57.2,32.0,38,29.98,10.0,North,15.0,21.9,N/A,,Clear,360,2012-12-03 20:15:00
2:35 PM,57.2,33.8,41,29.99,10.0,North,16.1,19.6,N/A,,Clear,360,2012-12-03 20:35:00
2:55 PM,57.2,32.0,38,30.00,10.0,NNW,19.6,-,N/A,,Clear,330,2012-12-03 20:55:00
3:15 PM,57.2,30.2,36,30.00,10.0,North,17.3,23.0,N/A,,Clear,350,2012-12-03 21:15:00
3:55 PM,55.4,26.6,33,30.02,10.0,North,15.0,23.0,N/A,,Clear,350,2012-12-03 21:55:00
4:15 PM,55.4,26.6,33,30.03,10.0,NNW,13.8,-,N/A,,Clear,340,2012-12-03 22:15:00
4:35 PM,55.4,26.6,33,30.05,10.0,North,10.4,18.4,N/A,,Clear,350,2012-12-03 22:35:00
4:55 PM,53.6,24.8,33,30.07,10.0,North,8.1,-,N/A,,Clear,350,2012-12-03 22:55:00
5:15 PM,50.0,23.0,35,30.07,10.0,North,9.2,-,N/A,,Clear,360,2012-12-03 23:15:00
5:55 PM,44.6,23.0,43,30.09,10.0,North,10.4,-,N/A,,Clear,350,2012-12-03 23:55:00
6:15 PM,46.4,23.0,40,30.09,10.0,NNW,8.1,-,N/A,,Clear,340,2012-12-04 00:15:00
6:35 PM,37.4,21.2,52,30.11,10.0,NW,11.5,-,N/A,,Clear,320,2012-12-04 00:35:00
6:55 PM,41.0,21.2,45,30.12,10.0,NW,9.2,-,N/A,,Clear,320,2012-12-04 00:55:00
7:15 PM,37.4,21.2,52,30.12,10.0,NW,10.4,-,N/A,,Clear,320,2012-12-04 01:15:00
7:35 PM,35.6,21.2,56,30.13,10.0,NW,9.2,-,N/A,,Clear,320,2012-12-04 01:35:00
7:55 PM,33.8,19.4,56,30.14,10.0,NW,8.1,-,N/A,,Clear,320,2012-12-04 01:55:00
8:15 PM,32.0,19.4,60,30.15,10.0,NW,8.1,-,N/A,,Clear,310,2012-12-04 02:15:00
8:35 PM,30.2,17.6,60,30.16,10.0,West,10.4,-,N/A,,Clear,260,2012-12-04 02:35:00
8:55 PM,30.2,17.6,60,30.15,10.0,West,6.9,-,N/A,,Clear,280,2012-12-04 02:55:00
9:15 PM,28.4,15.8,59,30.15,10.0,West,4.6,-,N/A,,Clear,260,2012-12-04 03:15:00
9:35 PM,30.2,15.8,55,30.16,10.0,WNW,10.4,-,N/A,,Clear,290,2012-12-04 03:35:00
9:55 PM,30.2,17.6,60,30.17,10.0,WNW,9.2,-,N/A,,Clear,290,2012-12-04 03:55:00
10:15 PM,32.0,15.8,51,30.17,10.0,NW,9.2,-,N/A,,Clear,320,2012-12-04 04:15:00
10:35 PM,30.2,15.8,55,30.17,10.0,NW,8.1,-,N/A,,Clear,320,2012-12-04 04:35:00
10:55 PM,30.2,15.8,55,30.18,10.0,SW,4.6,-,N/A,,Clear,230,2012-12-04 04:55:00
11:15 PM,26.6,14.0,59,30.19,10.0,West,6.9,-,N/A,,Clear,270,2012-12-04 05:15:00
11:35 PM,26.6,14.0,59,30.19,10.0,West,6.9,-,N/A,,Clear,280,2012-12-04 05:35:00
11:55 PM,28.4,14.0,55,30.19,10.0,NW,9.2,-,N/A,,Clear,310,2012-12-04 05:55:00